Wheeler AAF, HI

4:58 AM HST on August 23, 2017 (GMT -1000)
Wheeler Army Air Field

Weather History for PHHI - December, 2012

Change the Weather History Date:

Sunday, December 23, 2012

  Actual Average Record
Temperature  
Mean Temperature 67 °F -  
Max Temperature 76 °F 74 °F 80 °F (2003)
Min Temperature 58 °F 61 °F 58 °F (2012)
Cooling Degree Days 2    
Growing Degree Days 17 (Base 50)    
Moisture  
Dew Point 58 °F    
Average Humidity 76    
Maximum Humidity 93    
Minimum Humidity 49    
Precipitation  
Precipitation 0.00 in - - ()
Sea Level Pressure  
Sea Level Pressure 29.98 in    
Wind  
Wind Speed 4 mph (NW)    
Max Wind Speed 10 mph    
Max Gust Speed -    
Visibility 10 miles    
Events      
Averages and records for this station are not official NWS values.
T = Trace of Precipitation, MM = Missing Value Source: NWS Daily Summary

Daily Weather History Graph

Daily Weather History Graph

Search for Another Location

Airport or City:

Trip Planner

Search our weather history database for the weather conditions in past years. The results will help you decide how hot, cold, wet, or windy it might be!

Date:

Astronomy

Dec. 23, 2012 Rise Set
Actual Time 7:06 AM HST 5:56 PM HST
Civil Twilight 6:42 AM HST 6:20 PM HST
Nautical Twilight 6:14 AM HST 6:48 PM HST
Astronomical Twilight 5:47 AM HST 7:15 PM HST
Moon 2:42 PM HST 3:14 AM HST
Length of Visible Light 11h 38m
Length of Day
10h 49m
Waxing Gibbous, 83% of the Moon is Illuminated
Dec 23
Waxing Gibbous
Dec 28
Full
Jan 4
Last Quarter
Jan 11
New
Jan 18
First Quarter

Hourly Weather History & Observations

Time (HST) Temp. Dew Point Humidity Pressure Visibility Wind Dir Wind Speed Gust Speed Precip Events Conditions
12:55 AM 61.9 °F 58.6 °F 89% 30.01 in 10.0 mi NW 3.5 mph - N/A   Clear
1:55 AM 60.3 °F 57.7 °F 91% 30.01 in 10.0 mi West 4.6 mph - N/A   Clear
2:55 AM 61.3 °F 58.8 °F 91% 29.99 in 10.0 mi NW 3.5 mph - N/A   Overcast
3:55 AM 60.8 °F 58.1 °F 91% 29.98 in 10.0 mi NW 3.5 mph - N/A   Scattered Clouds
4:55 AM 59.4 °F 57.0 °F 92% 29.99 in 10.0 mi Calm Calm - N/A   Clear
5:55 AM 59.0 °F 56.7 °F 92% 30.00 in 10.0 mi WNW 3.5 mph - N/A   Clear
6:55 AM 58.5 °F 56.3 °F 93% 30.01 in 10.0 mi WNW 4.6 mph - N/A   Clear
7:55 AM 59.9 °F 57.9 °F 93% 30.03 in 10.0 mi Calm Calm - N/A   Clear
8:55 AM 68.9 °F 62.8 °F 81% 30.03 in 10.0 mi Calm Calm - N/A   Clear
9:55 AM 71.8 °F 60.8 °F 68% 30.03 in 10.0 mi Calm Calm - N/A   Clear
10:55 AM 72.9 °F 58.5 °F 60% 30.01 in 10.0 mi Variable 3.5 mph - N/A   Clear
11:55 AM 75.7 °F 56.7 °F 51% 29.98 in 10.0 mi NE 4.6 mph - N/A   Clear
12:55 PM 76.5 °F 55.9 °F 49% 29.94 in 10.0 mi West 5.8 mph - N/A   Mostly Cloudy
1:55 PM 74.8 °F 57.9 °F 55% 29.93 in 10.0 mi NW 10.4 mph - N/A   Overcast
2:55 PM 74.5 °F 55.6 °F 52% 29.92 in 10.0 mi NW 5.8 mph - N/A   Overcast
3:55 PM 73.8 °F 56.5 °F 55% 29.91 in 10.0 mi North 4.6 mph - N/A   Overcast
4:55 PM 73.6 °F 55.2 °F 53% 29.92 in 10.0 mi NNE 4.6 mph - N/A   Overcast
5:55 PM 70.2 °F 57.2 °F 63% 29.94 in 10.0 mi ENE 3.5 mph - N/A   Clear
6:55 PM 67.1 °F 57.7 °F 72% 29.96 in 10.0 mi WNW 3.5 mph - N/A   Clear
7:55 PM 64.9 °F 57.6 °F 77% 29.99 in 10.0 mi WNW 4.6 mph - N/A   Partly Cloudy
8:55 PM 62.6 °F 57.7 °F 84% 29.99 in 10.0 mi WNW 3.5 mph - N/A   Clear
9:55 PM 60.8 °F 57.0 °F 87% 29.99 in 10.0 mi West 4.6 mph - N/A   Clear
10:55 PM 61.3 °F 57.7 °F 88% 29.99 in 10.0 mi West 4.6 mph - N/A   Clear
11:55 PM 62.2 °F 58.6 °F 88% 29.98 in 10.0 mi NW 3.5 mph - N/A   Clear